Regional Weather Roundup
Issued by NWS

Home | Current Version | Previous Version | Text Only | Print | Product List | Glossary On
Versions: 1 2 3 4 5 6 7 8 9 10 11 12 13 14 15 16 17 18 19 20 21 22 23 24 25 26 27 28 29 30 31 32 33 34 35 36 37 38 39 40 41 42 43 44 45 46 47 48 49 50
822
ASUS44 KBMX 231210
RWRAL

ALABAMA REGIONAL WEATHER ROUNDUP
NATIONAL WEATHER SERVICE BIRMINGHAM AL
700 AM CDT FRI JUN 23 2017

NOTE: "FAIR" INDICATES FEW OR NO CLOUDS BELOW 12,000 FEET
WITH NO SIGNIFICANT WEATHER AND/OR OBSTRUCTIONS TO VISIBILITY.

THE REMARK "TC" DENOTES TEMPERATURE IN DEGREES CELSIUS.

ALZ001>011-014-016>018-020-231300-
NORTH ALABAMA

CITY           SKY/WX    TMP DP  RH WIND       PRES   REMARKS
MUSCLE SHOALS  PTSUNNY   78  71  79 S10       29.86F
6HR MIN TEMP:  77; 6HR MAX TEMP:  79;

HUNTSVILLE     RAIN      75  75 100 S8        29.89F FOG
6HR MIN TEMP:  75; 6HR MAX TEMP:  77; 6HR PCP:  0.12;

DECATUR        LGT RAIN  75  73  93 S10       29.89F
6HR MIN TEMP:  75; 6HR MAX TEMP:  77; 6HR PCP:  0.02;

HALEYVILLE     NOT AVBL
GADSDEN        CLOUDY    75  73  93 S6        29.95F
6HR MIN TEMP:  74; 6HR MAX TEMP:  77; 6HR PCP:  0.08;

$$

ALZ012-013-022-023-030>036-040>044-231300-
WEST CENTRAL ALABAMA

CITY           SKY/WX    TMP DP  RH WIND       PRES   REMARKS
TUSCALOOSA     CLOUDY    77  76  96 S14       29.91R
6HR MIN TEMP:  75; 6HR MAX TEMP:  77; 6HR PCP:  0.05;

$$

ALZ015-024>027-033>036-040>044-231300-
CENTRAL ALABAMA

CITY           SKY/WX    TMP DP  RH WIND       PRES   REMARKS
BIRMINGHAM     CLOUDY    76  73  91 S10G21    29.96S
6HR MIN TEMP:  75; 6HR MAX TEMP:  76; 6HR PCP:  0.55;

MONTGOMERY     CLOUDY    79  72  79 S12G17    29.97S
6HR MIN TEMP:  77; 6HR MAX TEMP:  79;

SHELBY CO ARPT CLOUDY    77  75  93 S10       29.95S
6HR MIN TEMP:  76; 6HR MAX TEMP:  78; 6HR PCP:  0.16;

MAXWELL AFB    PTSUNNY   77  75  94 S10       29.96F
GREENVILLE     CLOUDY    77  73  87 S8        29.97R
6HR MIN TEMP:  76; 6HR MAX TEMP:  77;

$$

ALZ019-021-028-029-037-038-045>048-231300-
EAST CENTRAL ALABAMA

CITY           SKY/WX    TMP DP  RH WIND       PRES   REMARKS
ANNISTON       CLOUDY    76  71  85 VRB7      29.97S
6HR MIN TEMP:  76; 6HR MAX TEMP:  77;

ALEXANDER CITY CLOUDY    74  73  94 S7        30.00R
6HR MIN TEMP:  73; 6HR MAX TEMP:  74;

AUBURN         CLOUDY    73  72  96 S13       30.03R
6HR MIN TEMP:  72; 6HR MAX TEMP:  75;

$$

ALZ051>064-231300-
SOUTHWEST ALABAMA

CITY           SKY/WX    TMP DP  RH WIND       PRES   REMARKS
MOBILE         CLOUDY    80  76  87 S10       29.96R
6HR MIN TEMP:  79; 6HR MAX TEMP:  80;

BROOKLEY FIELD CLOUDY    81  79  94 S10       29.96R HX  90
6HR MIN TEMP:  81; 6HR MAX TEMP:  81;

EVERGREEN      CLOUDY    78  75  90 S10       29.98R
6HR MIN TEMP:  76; 6HR MAX TEMP:  78;

$$

ALZ049-050-065>069-231300-
SOUTHEAST ALABAMA

CITY           SKY/WX    TMP DP  RH WIND       PRES   REMARKS
DOTHAN         PTSUNNY   77  76  96 S13       30.05R
6HR MIN TEMP:  76; 6HR MAX TEMP:  77;

OZARK          MOSUNNY   77  75  95 S8        30.01R
6HR MIN TEMP:  74; 6HR MAX TEMP:  77;

TROY           CLOUDY    76  75  97 S7        30.00S
6HR MIN TEMP:  74; 6HR MAX TEMP:  76;

EUFAULA        CLOUDY    78  75  90 VRB7      30.00S
6HR MIN TEMP:  75; 6HR MAX TEMP:  78;

$$




USA.gov is the U.S. government's official web portal to all federal, state and local government web resources and services.